Location: El Chorro
(10.0985°N, 67.3542°W)
Time: 19:27:48
(UTC+00:00)

GPS 2-15 Rocket1 - Pass Details

Date: 15 November 2025
Orbit: 608 x 653 km, 19.8° (Epoch: 06 December)

Event Time Altitude Azimuth Distance (km) Brightness Sun altitude
Rises 22:19:48 0° 270° (W) 2,924 8.2 -4.5°
Reaches altitude 10° 22:22:18 10° 277° (W) 2,008 6.9 -5.1°
Maximum altitude 22:26:43 40° 347° (NNW) 925 3.9 -6.2°
Drops below altitude 10° 22:31:05 10° 57° (ENE) 1,979 5.0 -7.2°
Enters shadow 22:31:31 - 59° (ENE) 2,128 5.2 -7.3°
